This demonstration page uses our WeatherBlox Daily Observations layout. Learn more.

Left ArrowRight Arrow

44.8408, -93.29828

Hourly Observations for December 13, 2019

Temp ( °F °C ) Dew Point ( °F °C ) Humidity (%) Winds ( mph kmh ) Pressure ( in mb ) Visibility ( mi km ) Precip ( " mm )
12:53 am 00:53 Mostly Cloudy 16 -8.9 10 -12.2 77 77 Calm 30.06 1018 9 14 0.00 0.00
1:53 am 01:53 Clear 15 -9.4 10 -12.2 80 80 W 3 6 30.06 1018 7 11 0.00 0.00
2:53 am 02:53 Hazy 14 -10 9 -12.8 80 80 Calm 30.06 1018 6 10 0.00 0.00
3:53 am 03:53 Partly Cloudy with Mist and Fog 12 -11.1 8 -13.3 84 84 SE 5 7 30.03 1017 5 8 0.00 0.00
4:53 am 04:53 Mostly Clear with Mist and Fog 11 -11.7 8 -13.3 88 88 Calm 30.02 1017 5 8 0.00 0.00
5:53 am 05:53 Partly Cloudy with Mist and Fog 11 -11.7 7 -13.9 84 84 S 3 6 30.01 1016 5 8 0.00 0.00
6:53 am 06:53 Mostly Cloudy with Mist and Fog 11 -11.7 7 -13.9 84 84 Calm 30.00 1016 6 10 0.00 0.00
7:53 am 07:53 Partly Cloudy with Mist and Fog 11 -11.7 7 -13.9 84 84 SW 3 6 29.99 1016 2 3 0.00 0.00
7:59 am 07:59 Partly Cloudy with Mist and Fog 11 -11.7 7 -13.9 84 84 Calm 30.03 1017 1 1 0.00 0.00
8:07 am 08:07 Partly Cloudy with Mist and Fog 11 -11.7 8 -13.3 88 88 Calm 30.03 1017 3 5 0.00 0.00
8:53 am 08:53 Mostly Cloudy with Mist and Fog 10 -12.2 7 -13.9 87 87 SSE 5 7 29.98 1015 5 8 0.00 0.00
9:53 am 09:53 Cloudy with Mist and Fog 13 -10.6 9 -12.8 84 84 SSE 6 9 29.98 1015 5 8 0.00 0.00
10:53 am 10:53 Cloudy with Mist and Fog 15 -9.4 10 -12.2 80 80 SSE 6 9 29.98 1015 5 8 0.00 0.00
11:20 am 11:20 Cloudy with Light Snow 16 -8.9 10 -12.2 77 77 SSE 6 9 30.00 1016 2 3 0.00 0.00
11:27 am 11:27 Cloudy with Light Snow 16 -8.9 10 -12.2 77 77 S 6 9 30.00 1016 1 2 0.00 0.00
11:31 am 11:31 Cloudy with Light Snow 16 -8.9 11 -11.7 80 80 S 6 9 30.00 1016 2 3 0.00 0.00
11:36 am 11:36 Cloudy with Light Snow 15 -9.4 11 -11.7 84 84 SSE 5 7 29.99 1016 2 3 0.00 0.00
11:41 am 11:41 Cloudy with Light Snow 16 -8.9 11 -11.7 80 80 SSE 6 9 29.99 1016 1 1 0.00 0.00
11:53 am 11:53 Mostly Cloudy with Snow 16 -8.9 11 -11.7 80 80 SSE 6 9 29.95 1014 1 1 0.01 0.25
12:04 pm 12:04 Mostly Cloudy with Snow 15 -9.4 11 -11.7 84 84 SE 7 11 29.97 1015 1 1 0.01 0.25
12:19 pm 12:19 Cloudy with Light Snow 16 -8.9 12 -11.1 84 84 SE 8 13 29.96 1015 1 2 0.01 0.25
12:24 pm 12:24 Cloudy with Light Snow 16 -8.9 11 -11.7 80 80 SE 6 9 29.95 1014 2 2 0.01 0.25
12:33 pm 12:33 Cloudy with Mist and Fog 16 -8.9 12 -11.1 84 84 ESE 6 9 29.95 1014 3 5 0.02 0.51
12:51 pm 12:51 Cloudy with Light Snow 16 -9 10 -12 79 79 Calm 29.95 1014 3 4 0.02 0.51
12:53 pm 12:53 Cloudy with Light Snow 16 -8.9 11 -11.7 80 80 S 3 6 29.92 1013 3 4 0.02 0.51
12:56 pm 12:56 Cloudy with Light Snow 16 -8.9 11 -11.7 80 80 Calm 29.95 1014 1 2 0.00 0.00
1:14 pm 13:14 Cloudy with Light Snow 16 -8.9 11 -11.7 80 80 SE 3 6 29.94 1014 2 3 0.00 0.00
1:22 pm 13:22 Cloudy with Mist and Fog 16 -8.9 11 -11.7 80 80 SSE 3 6 29.93 1013 3 5 0.00 0.00
1:40 pm 13:40 Cloudy with Mist and Fog 16 -8.9 12 -11.1 84 84 SSE 3 6 29.93 1013 3 5 0.01 0.25
1:53 pm 13:53 Cloudy with Mist and Fog 16 -8.9 11 -11.7 80 80 SSE 5 7 29.89 1012 4 6 0.01 0.25
2:53 pm 14:53 Cloudy with Mist and Fog 17 -8.3 11 -11.7 77 77 SSE 7 11 29.88 1012 4 6 0.00 0.00
3:53 pm 15:53 Cloudy with Mist and Fog 18 -7.8 11 -11.7 74 74 VRB 5 7 29.89 1012 5 8 0.00 0.00
4:09 pm 16:09 Cloudy with Mist and Fog 18 -7.8 11 -11.7 74 74 SW 6 9 29.92 1013 5 8 0.00 0.00
4:17 pm 16:17 Cloudy with Mist and Fog 18 -7.8 11 -11.7 74 74 SW 7 11 29.92 1013 5 8 0.00 0.00
4:53 pm 16:53 Cloudy with Mist and Fog 18 -7.8 12 -11.1 77 77 SW 7 11 29.90 1013 5 8 0.00 0.00
5:37 pm 17:37 Cloudy with Mist and Fog 17 -8.3 14 -10 88 88 WSW 7 11 29.94 1014 4 6 0.00 0.00
5:53 pm 17:53 Cloudy with Mist and Fog 17 -8.3 13 -10.6 84 84 WSW 6 9 29.91 1013 3 5 0.00 0.00
6:28 pm 18:28 Cloudy with Mist and Fog 17 -8.3 13 -10.6 84 84 WSW 7 11 29.94 1014 4 6 0.00 0.00
6:53 pm 18:53 Cloudy with Mist and Fog 17 -8.3 13 -10.6 84 84 W 7 11 29.90 1013 4 6 0.00 0.00
7:53 pm 19:53 Cloudy with Mist and Fog 17 -8.3 14 -10 88 88 WSW 5 7 29.90 1013 3 5 0.00 0.00
8:35 pm 20:35 Cloudy with Haze 18 -7.8 13 -10.6 81 81 W 6 9 29.92 1013 4 6 0.00 0.00
8:44 pm 20:44 Cloudy with Mist and Fog 18 -7.8 14 -10 84 84 W 7 11 29.92 1013 4 6 0.00 0.00
8:53 pm 20:53 Cloudy with Mist and Fog 18 -7.8 14 -10 84 84 W 6 9 29.90 1013 4 6 0.00 0.00
9:14 pm 21:14 Cloudy with Mist and Fog 18 -7.8 14 -10 84 84 W 7 11 29.93 1014 4 6 0.00 0.00
9:53 pm 21:53 Cloudy with Mist and Fog 18 -7.8 14 -10 84 84 WNW 8 13 29.89 1012 4 6 0.00 0.00
10:19 pm 22:19 Cloudy with Mist and Fog 18 -7.8 15 -9.4 88 88 WNW 8 13 29.92 1013 4 6 0.00 0.00
10:53 pm 22:53 Cloudy with Mist and Fog 18 -7.8 15 -9.4 88 88 WNW 7 11 29.89 1012 3 5 0.00 0.00
11:03 pm 23:03 Cloudy with Mist and Fog 18 -7.8 15 -9.4 88 88 WNW 6 9 29.92 1013 3 4 0.00 0.00
11:10 pm 23:10 Cloudy with Mist and Fog 18 -7.8 15 -9.4 88 88 WNW 8 13 29.91 1013 3 5 0.00 0.00
11:53 pm 23:53 Cloudy with Mist and Fog 18 -7.8 15 -9.4 88 88 NW 13 20 29.89 1012 3 5 0.00 0.00

Powered by AerisWeather